If you wish to contribute or participate in the discussions about articles you are invited to join SKYbrary as a registered user

 Actions

Lanvéoc-Poulmic Air Base

From SKYbrary Wiki

LFRL
Airport
ICAO: LFRL
Summary
Name Lanvéoc-Poulmic Air Base
Region Europe
Territory France FR.gif
Location , Bretagne
Serving Lanvedoc
Elevation 87.478 m
287 ft
287 ft87.478 m
Type medium airport
Coordinates 48° 16' 54.13" N, 4° 26' 42.06" W
Runways
Designator Length Width Surface ROPS
5/23 1108 m3,635.171 ft
40 m131.234 ft
ASP /
6/24 0 m0 ft
0 m0 ft
UNK /
13/31 650 m2,132.546 ft
54 m177.165 ft
GRS /


METAR
Observation LFRL 210230Z AUTO 13010KT 9000 -RA BKN039/// BKN046/// BKN064/// ///CB 08/08 Q0998
Station Lanveoc Poulmic
Date/Time 21 November 2019 02:30:00
Wind direction 130°
Wind speed 10 kts
Lowest cloud amount broken clouds
Temperature 8°C
Dew point 8°C
Humidity 100%
QNH 998 hPa
Weather condition n/a